Location: Valencia
(39.4670°N, 0.3670°W)
Time: 18:19:00
(UTC+02:00)

ISS - Pass Details

Date: 07 August 2017
Orbit: 401 x 408 km, 51.6° (Epoch: 19 August)

Event Time Altitude Azimuth Distance (km) Brightness Sun altitude
Rises 23:06:56 0° 311° (NW) 2,315 1.6 -20.3°
Reaches altitude 10° 23:09:03 10° 316° (NW) 1,454 0.2 -20.6°
Enters shadow 23:11:59 50° 14° (NNE) 517 -3.2 -21.0°
